83P/Russell 1 (2006)

Japanese version
Home page
Total 6,336 html files since Dec. 4, 1995
Updated on January 16, 2006

---------------------------------------------------------------------

* Profile

* Orbital Elements

Epoch 2006 Apr. 15.0 TT = JDT 2453840.5
T 2006 Apr. 7.7445 TT                                   MPCN
q   2.171785             (2000.0)            P               Q
n   0.1294128      Peri.  333.7771      -0.9232464      +0.3142526
a   3.870952       Node   226.4197      -0.2764530      -0.9428937
e   0.438953       Incl.   17.7666      -0.2668143      -0.1104393
P   7.62
From 20 observations 1979-1985, mean residual 1".3.

* Magnitudes Graph

        m1 = 14.0 + 5 log d + 20 log r

---------------------------------------------------------------------

The orbital elements are published at the MPC Ephemerides and Orbital Elements.
The magnitudes graphs are made with Comet for Windows.

---------------------------------------------------------------------

Copyright(C) 1995-2008 Seiichi Yoshida (comet@aerith.net). All rights reserved.